This demonstration page uses our WeatherBlox Daily Observations layout. Learn more.

Left ArrowRight Arrow

Hourly Observations for March 15, 2022

Temp ( °F °C ) Dew Point ( °F °C ) Humidity (%) Winds ( mph kmh ) Pressure ( in mb ) Visibility ( mi km ) Precip ( " mm )
12:53 am 00:53 Clear 45 7.2 30 -1.1 56 56 WSW 8 13 29.91 1013 10 16 0.00 0.00
1:53 am 01:53 Partly Cloudy 37 2.8 29 -1.7 73 73 WSW 7 11 29.90 1012 10 16 0.00 0.00
2:53 am 02:53 Partly Cloudy 36 2.2 30 -1.1 79 79 WSW 8 13 29.87 1012 10 16 0.00 0.00
3:53 am 03:53 Cloudy 38 3.3 31 -0.6 76 76 SW 10 17 29.83 1010 10 16 0.00 0.00
4:53 am 04:53 Cloudy 40 4.4 31 -0.6 70 70 NW 7 11 29.82 1010 10 16 0.00 0.00
5:53 am 05:53 Partly Cloudy 37 2.8 31 -0.6 79 79 WNW 6 9 29.81 1010 10 16 0.00 0.00
6:53 am 06:53 Cloudy 36 2.2 31 -0.6 82 82 S 6 9 29.81 1009 10 16 0.00 0.00
7:53 am 07:53 Cloudy 41 5 32 0 70 70 SW 13 20 29.80 1009 10 16 0.00 0.00
8:53 am 08:53 Mostly Cloudy 49 9.4 33 0.6 55 55 SW 14 22 29.79 1009 10 16 0.00 0.00
9:53 am 09:53 Sunny 52 11.1 33 0.6 49 49 WSW 22 35 29.77 1008 10 16 0.00 0.00
10:53 am 10:53 Sunny 55 12.8 35 1.7 47 47 WSW 24 39 29.76 1008 10 16 0.00 0.00
11:53 am 11:53 Sunny 59 15 37 2.8 44 44 W 31 50 29.75 1008 10 16 0.00 0.00
12:53 pm 12:53 Sunny 61 16.1 36 2.2 39 39 W 23 37 29.74 1007 10 16 0.00 0.00
1:53 pm 13:53 Sunny 60 15.6 34 1.1 38 38 W 24 39 29.75 1007 10 16 0.00 0.00
2:53 pm 14:53 Sunny 58 14.4 31 -0.6 36 36 W 22 35 29.75 1007 10 16 0.00 0.00
3:53 pm 15:53 Sunny 59 15 32 0 36 36 W 18 30 29.74 1007 10 16 0.00 0.00
4:53 pm 16:53 Sunny 61 16.1 30 -1.1 31 31 W 29 46 29.71 1006 10 16 0.00 0.00
5:53 pm 17:53 Sunny 58 14.4 30 -1.1 35 35 W 23 37 29.72 1006 10 16 0.00 0.00
6:53 pm 18:53 Sunny 54 12.2 31 -0.6 42 42 W 18 30 29.76 1008 10 16 0.00 0.00
7:53 pm 19:53 Clear 50 10 31 -0.6 48 48 W 16 26 29.78 1009 10 16 0.00 0.00
8:53 pm 20:53 Clear 45 7.2 29 -1.7 54 54 W 13 20 29.81 1010 10 16 0.00 0.00
9:53 pm 21:53 Clear 41 5 29 -1.7 62 62 SW 14 22 29.82 1010 10 16 0.00 0.00
10:53 pm 22:53 Clear 40 4.4 29 -1.7 65 65 SSW 20 31 29.82 1010 10 16 0.00 0.00
11:53 pm 23:53 Clear 40 4.4 28 -2.2 63 63 SW 21 33 29.83 1010 10 16 0.00 0.00

Powered by AerisWeather